DateTimeUTC,F1_A11,F1_S11,BsB_S11,BsG_S11,BsR_S11,BbsB_S11,BbsG_S11,BbsR_S11,BaB_A11,BaG_A11,BaR_A11,Tu_S11,T_S11,Uu_S11,U_S11,P_S11,T1_A11
2021-11-16T17:00:00Z,00000200,21000000,,,,,,,0000.14,0000.43,0000.00,18.5,25.6,,00.0,0639.1,30.9
2021-11-16T17:01:00Z,00000200,21000000,,,,,,,-000.26,0000.13,-000.09,18.5,25.7,,00.0,0639.1,30.9
2021-11-16T17:02:00Z,00000200,21000000,,,,,,,0000.28,-000.25,0000.26,18.5,25.7,,00.0,0639.1,30.8
2021-11-16T17:03:00Z,00000200,61000000,,,,,,,0000.06,-000.13,0000.07,18.5,25.7,,00.0,0639.1,30.9
2021-11-16T17:04:00Z,00000200,41000000,0000.28,0000.26,0000.06,0000.18,0000.26,0000.06,-000.09,0000.36,-000.09,18.8,25.6,,00.0,0639.8,30.8
2021-11-16T17:05:00Z,00000200,01000000,0000.43,-000.02,0000.40,0000.04,0000.07,0000.21,0000.66,0000.47,0000.40,18.8,25.5,,00.0,0639.8,30.8
2021-11-16T17:06:00Z,00000200,01000000,0000.39,0000.35,0000.40,-000.09,-000.01,0000.24,-000.05,0000.28,0000.25,18.7,25.4,,00.0,0639.7,30.8
2021-11-16T17:07:00Z,00000200,01000000,0000.50,0000.46,0000.15,0000.39,0000.13,0000.12,0000.38,0000.13,0000.19,18.7,25.4,,00.0,0639.7,30.8
2021-11-16T17:08:00Z,00000200,01000000,-000.14,0000.48,-000.07,-000.25,-000.01,0000.01,0000.41,0000.28,0000.35,18.7,25.4,,00.0,0639.7,30.8
2021-11-16T17:09:00Z,00000200,01000000,0000.32,0000.27,0000.20,-000.11,-000.04,0000.00,-000.01,0000.05,0000.09,18.7,25.4,,00.0,0639.7,30.8
2021-11-16T17:10:00Z,00000200,01000000,0000.83,0000.48,0000.22,-000.72,0000.30,0000.25,0000.17,0000.13,-000.03,18.7,25.4,,00.0,0639.7,30.8
2021-11-16T17:11:00Z,00000200,01000000,-000.10,0000.31,0000.35,0000.24,0000.12,-000.05,0002.71,0002.32,0001.97,18.8,25.4,,00.0,0639.8,30.8
2021-11-16T17:12:00Z,00000200,01000000,0005.31,0003.95,0002.20,0000.96,0001.03,0000.63,0068.42,0062.80,0049.32,18.8,25.4,,00.0,0639.8,30.8
2021-11-16T17:13:00Z,00000200,01000000,0002.17,0001.58,0001.10,0000.63,0000.33,0000.00,0024.22,0022.58,0017.86,18.8,25.4,,00.0,0639.8,30.8
2021-11-16T17:14:00Z,00000200,01000000,0001.65,0001.11,0000.94,0000.25,0000.21,0000.83,0014.85,0013.53,0010.44,18.8,25.4,,00.0,0639.8,30.8
2021-11-16T17:15:00Z,00000200,01000000,0001.82,0001.55,0000.59,0000.41,0000.47,0000.48,0023.82,0021.65,0017.26,18.9,25.4,,00.0,0639.8,30.8
2021-11-16T17:16:00Z,00000200,01000000,0004.68,0003.74,0002.16,0001.38,0001.13,0000.71,0065.54,0060.53,0047.02,18.9,25.5,,00.0,0639.9,30.8
2021-11-16T17:17:00Z,00000200,01000000,0002.63,0002.51,0001.65,0000.68,0000.62,0000.77,0049.72,0045.48,0036.12,18.9,25.5,,00.0,0639.9,30.8
2021-11-16T17:18:00Z,00000200,01000000,0001.75,0001.56,0001.27,0000.66,0000.40,0000.82,0029.16,0027.14,0021.14,18.9,25.5,,00.0,0639.9,30.8
2021-11-16T17:19:00Z,00000200,01000000,0001.28,0001.12,0000.73,0001.46,0000.49,0000.60,0021.31,0019.34,0015.80,18.8,25.5,,00.0,0639.9,30.8
2021-11-16T17:20:00Z,00000200,01000000,0000.83,0000.95,0000.52,0000.83,0000.59,0000.26,0014.08,0012.87,0009.81,18.8,25.4,,00.0,0639.9,30.8
2021-11-16T17:21:00Z,00000200,01000000,0000.08,0000.56,0000.16,-000.23,0000.27,-000.17,0005.91,0005.87,0004.30,18.7,25.4,,00.0,0639.9,30.8
2021-11-16T17:22:00Z,00000200,01000000,0000.87,0000.20,0000.29,0000.34,0000.27,0000.06,0000.89,0000.57,0000.69,18.7,25.4,,00.0,0639.9,30.8
2021-11-16T17:23:00Z,00000200,01000000,0000.49,0000.46,0000.21,0000.02,0000.15,0000.08,0000.38,0000.55,0000.48,18.7,25.4,,00.0,0639.9,30.8
2021-11-16T17:24:00Z,00000200,01000000,0000.89,0000.24,0000.12,0000.48,0000.07,0000.12,0000.65,0000.57,0000.30,18.7,25.4,,00.0,0639.9,30.8
2021-11-16T17:25:00Z,00000200,01000000,0000.41,0000.12,-000.09,0000.65,0000.24,-000.05,0000.48,0000.07,0000.09,18.7,25.4,,00.0,0639.9,30.8
2021-11-16T17:26:00Z,00000200,01000000,0000.67,0000.49,0000.19,-000.29,-000.03,-000.13,0000.31,0000.44,0000.34,18.8,25.4,,00.0,0640.0,30.8
2021-11-16T17:27:00Z,00000200,01000000,0000.16,0000.41,0000.21,-000.00,-000.01,0000.56,0000.14,0000.21,0000.28,18.8,25.4,,00.0,0640.0,30.8
2021-11-16T17:28:00Z,00000200,01000000,0001.07,0000.77,0000.30,0000.60,0000.11,0000.21,0006.94,0006.62,0005.18,18.8,25.4,,00.0,0640.0,30.8
2021-11-16T17:29:00Z,00000200,01000000,0001.46,0001.14,0000.90,0000.59,0000.01,0000.49,0021.10,0018.96,0014.92,18.8,25.4,,00.0,0640.0,30.8
2021-11-16T17:30:00Z,00000200,01000000,0002.12,0000.99,0000.49,0000.51,0000.34,0000.18,0018.30,0016.95,0013.64,18.9,25.4,,00.0,0640.0,30.8
2021-11-16T17:31:00Z,00000200,01000000,0002.24,0001.06,0000.70,0000.88,0000.12,0000.08,0017.66,0016.32,0012.46,18.9,25.4,,00.0,0640.0,30.8
2021-11-16T17:32:00Z,00000200,01000000,0001.50,0000.77,0000.83,0000.42,0000.19,0000.42,0011.05,0009.80,0007.98,18.9,25.4,,00.0,0640.0,30.8
2021-11-16T17:33:00Z,00000200,01000000,0000.85,0000.33,0000.20,0000.49,0000.16,0000.28,0006.12,0005.92,0004.27,18.9,25.4,,00.0,0640.0,30.8
2021-11-16T17:34:00Z,00000200,01000000,0000.97,0001.10,0000.07,0000.73,0000.37,0000.23,0014.79,0013.32,0010.69,18.8,25.4,,00.0,0639.9,30.8
2021-11-16T17:35:00Z,00000200,01000000,0001.77,0001.53,0000.79,0000.32,0000.61,0000.28,0019.09,0017.85,0014.14,18.7,25.3,,00.0,0639.9,30.8
2021-11-16T17:36:00Z,00000200,01000000,0002.31,0001.69,0001.01,0000.56,0000.39,0000.35,0027.35,0024.73,0019.53,18.6,25.3,,00.0,0639.9,30.8
2021-11-16T17:37:00Z,00000200,01000000,0002.01,0000.95,0000.75,0001.03,0000.43,0000.15,0021.61,0020.24,0015.56,18.6,25.2,,00.0,0639.9,30.8
2021-11-16T17:38:00Z,00000200,01000000,0000.38,0000.86,0000.18,-000.15,0000.14,0000.08,0009.39,0008.51,0007.00,18.6,25.3,,00.0,0639.8,30.8
2021-11-16T17:39:00Z,00000200,01000000,-000.35,0000.28,0000.43,0000.83,-000.46,0000.23,0001.76,0001.59,0001.32,18.7,25.3,,00.0,0639.8,30.8
2021-11-16T17:40:00Z,00000200,01000000,0000.22,0000.34,0000.26,0000.35,0000.09,0000.10,0000.23,0000.67,0000.43,18.7,25.3,,00.0,0639.8,30.8
2021-11-16T17:41:00Z,00000200,01000000,0000.64,0000.30,-000.05,0000.01,0000.21,0000.02,0000.97,0000.47,0000.49,18.6,25.3,,00.0,0639.9,30.8
2021-11-16T17:42:00Z,00000200,01000000,0002.25,0000.95,0001.08,0000.43,0000.36,0000.35,0019.63,0018.11,0014.08,18.7,25.3,,00.0,0639.9,30.8
2021-11-16T17:43:00Z,00000200,01000000,0006.26,0004.53,0002.81,0001.32,0001.08,0001.05,0081.77,0074.67,0058.57,18.7,25.3,,00.0,0639.9,30.8
2021-11-16T17:44:00Z,00000200,01000000,0012.76,0009.75,0006.30,0003.60,0002.75,0001.90,0191.13,0175.95,0138.69,18.7,25.3,,00.0,0639.9,30.8
2021-11-16T17:45:00Z,00000200,01000000,0008.01,0006.00,0003.78,0001.81,0001.50,0001.08,0126.39,0116.78,0092.72,18.8,25.3,,00.0,0639.9,30.8
2021-11-16T17:46:00Z,00000200,01000000,0005.58,0003.56,0002.38,0000.86,0001.00,0000.76,0072.02,0066.71,0052.50,18.8,25.3,,00.0,0639.9,30.8
2021-11-16T17:47:00Z,00000200,01000000,0000.15,0000.42,0000.25,-000.04,0000.11,0000.18,0012.99,0011.56,0009.52,18.8,25.3,,00.0,0640.0,30.8
2021-11-16T17:48:00Z,00000200,01000000,0000.94,0000.29,-000.10,0000.03,0000.18,0000.26,0000.68,0000.98,0000.93,18.8,25.4,,00.0,0640.0,30.8
2021-11-16T17:49:00Z,00000200,01000000,0000.12,0000.34,0000.37,-000.21,-000.10,0000.25,0000.98,0001.06,0000.40,18.7,25.3,,00.0,0640.0,30.8
2021-11-16T17:50:00Z,00000200,01000000,0000.72,0000.33,0000.26,0000.26,0000.22,0000.15,0001.05,0000.72,0001.03,18.7,25.3,,00.0,0640.0,30.8
2021-11-16T17:51:00Z,00000200,01000000,0000.77,0000.46,0000.34,0000.27,0000.14,0000.29,0000.58,0000.37,0000.17,18.6,25.2,,00.0,0640.0,30.8
2021-11-16T17:52:00Z,00000200,01000000,-000.30,0000.56,0000.40,0000.44,-000.06,0000.25,0000.35,0000.51,0000.09,18.5,25.2,,00.0,0640.0,30.8
2021-11-16T17:53:00Z,00000200,01000000,0000.36,0000.38,0000.00,0000.44,0000.05,0000.09,0000.71,0000.48,0000.39,18.5,25.2,,00.0,0640.0,30.8
2021-11-16T17:54:00Z,00000200,01000000,0000.66,0000.34,0000.13,0000.56,0000.15,0000.06,0000.52,0000.26,0000.10,18.6,25.2,,00.0,0640.0,30.8
2021-11-16T17:55:00Z,00000200,01000000,0000.68,0000.47,0000.29,-000.40,-000.01,0000.12,0000.45,0000.77,0000.35,18.6,25.2,,00.0,0640.0,30.8
2021-11-16T17:56:00Z,00000200,01000000,0001.27,-000.29,0000.01,0000.61,-000.04,-000.03,0000.03,0000.13,0000.42,18.6,25.2,,00.0,0640.0,30.8
2021-11-16T17:57:00Z,00000200,41000000,,,,,,,0001.54,0001.24,0001.45,18.7,25.3,,00.0,0640.0,30.8
2021-11-16T17:58:00Z,00000200,61000000,,,,,,,0000.50,0000.21,-000.13,18.3,25.4,,00.0,0639.0,30.8
2021-11-16T17:59:00Z,00000200,21000000,,,,,,,0000.07,0000.46,0000.24,18.3,25.5,,00.0,0639.0,30.8
